Location: Fort Worth, Tx
(32.7431°N, 97.3695°W)
Time: 05:36:35
(UTC-05:00)

Altair - Pass Details

Date: 05 October 2023
Orbit: 1501 x 1682 km, 47.2° (Epoch: 06 December)

Event Time Altitude Azimuth Distance (km) Brightness Sun altitude
Rises 00:32:12 0° 189° (S) 4,651 - -52.6°
Reaches altitude 10° 00:35:55 10° 176° (S) 3,693 - -53.1°
Maximum altitude 00:43:02 25° 125° (SE) 2,754 - -54.2°
Drops below altitude 10° 00:50:19 10° 76° (ENE) 3,810 - -55.2°
Sets 00:54:11 0° 64° (ENE) 4,829 - -55.7°
